Location: Unspecified
(47.6579°N, 23.5637°E)
Time: 16:30:11
(UTC+03:00)

ISS - Pass Details

Date: 30 September 2016
Orbit: 408 x 418 km, 51.6° (Epoch: 25 June)

Event Time Altitude Azimuth Distance (km) Brightness Sun altitude
Rises 21:11:42 0° 293° (WNW) 2,386 1.6 -21.6°
Reaches altitude 10° 21:13:46 10° 294° (WNW) 1,531 0.2 -21.9°
Enters shadow 21:16:42 62° 300° (WNW) 496 -3.3 -22.4°
